{"data":{"norad_id":61599,"intl_designator":"2024-188F","name":"ONEWEB-0691","alt_names":[],"object_type":"PAYLOAD","status":"ACTIVE","operator":null,"country":"UK","launch_date":"2024-10-20","launch_site_code":"AFWTR","launch_vehicle":null,"mission":null,"orbit_class":"UNKNOWN","rcs_meters":null,"size_class":null,"mass_kg":null,"dimensions":null,"purposes":["comms"],"wikipedia_slug":null,"has_3d_model":false,"image_url":null,"decayed_at":null,"tle_current":{"epoch":"2026-05-25T01:52:13.342080Z","epoch_age_seconds":75231,"freshness":"FRESH","line1":"1 61599U 24188F   26145.07793220 -.00000510  00000+0 -14742-2 0  9998","line2":"2 61599  87.8928  25.5653 0002148  86.8113 273.3261 13.11415036 81459","mean_motion":13.11415036,"eccentricity":0.0002148,"inclination_deg":87.8928,"raan_deg":25.5653,"arg_perigee_deg":86.8113,"mean_anomaly_deg":273.3261,"bstar":-0.0014742,"rev_number":8145,"period_min":109.80505488119,"perigee_km":1216.0584861034,"apogee_km":1219.3216534126,"semimajor_km":7595.827069758,"source":"CELESTRAK","updated_at":"2026-05-25T13:38:22.748937Z"}}}